Theta_e
318 318 318 318 318 318 317 317 316 314 315 316 318 319 319 319 318 319 326 326 323 319 318 338 345 345 345 346 347 345 351 347 344 342 340 338 337 336 343 344 348 348 350 352 352
320 320 320 320 320 319 319 319 319 318 317 315 315 317 318 320 320 322 325 324 321 318 324 340 341 340 340 342 342 346 348 345 343 341 341 339 337 336 339 344 349 349 352 351 351
320 319 319 318 318 318 317 317 317 319 319 318 315 313 316 318 322 328 322 322 322 318 336 337 335 337 337 337 337 339 342 342 341 340 339 339 337 337 338 339 343 349 353 353 352
316 316 314 314 313 315 315 315 314 315 317 318 319 314 314 317 328 329 323 320 320 326 336 333 332 335 336 333 331 333 332 333 334 334 336 339 338 336 336 337 337 341 353 354 353
314 313 311 311 310 311 313 314 314 313 314 316 318 316 315 325 325 326 323 320 319 334 331 333 333 334 334 331 330 330 331 330 330 331 333 336 336 335 335 335 336 341 353 354 353
311 311 310 311 311 311 311 313 313 314 316 317 317 317 316 323 321 326 331 320 329 334 331 331 331 331 331 331 331 330 330 330 329 329 330 332 333 333 334 335 338 345 350 352 352
310 311 311 311 311 312 312 312 314 316 316 316 316 317 323 322 323 327 330 330 331 331 329 328 328 329 329 331 331 331 333 332 332 331 331 331 331 332 332 333 334 343 348 350 351
310 310 311 312 311 311 312 314 315 315 316 316 317 318 324 321 320 320 322 327 325 322 323 325 324 326 328 329 330 331 331 332 332 333 331 330 330 330 330 331 334 336 343 348 350
310 310 310 312 312 312 314 315 315 316 316 317 325 326 325 320 321 322 322 321 321 322 324 325 324 324 325 329 330 330 329 330 331 333 332 331 330 331 330 330 331 332 332 343 348
310 310 310 312 313 313 316 316 316 317 316 319 322 325 324 322 321 321 321 322 322 322 326 327 327 328 328 329 329 330 331 331 331 333 333 332 332 332 331 330 330 330 331 335 346
310 310 310 313 314 315 316 320 321 322 321 321 322 322 322 321 321 322 321 321 321 323 325 326 329 329 329 330 331 331 330 331 330 331 332 332 332 332 331 331 331 331 331 333 345
311 310 310 313 314 316 317 318 316 316 322 320 320 321 321 320 323 323 322 323 323 324 325 326 327 328 329 329 328 328 329 330 331 331 331 331 332 332 332 333 331 331 332 335 343
311 312 311 313 315 320 317 316 316 316 321 322 321 322 322 321 323 324 323 324 326 327 327 327 327 327 327 327 327 328 329 329 329 330 331 331 332 333 333 332 330 330 331 334 343
313 313 312 314 321 319 319 316 316 315 327 325 324 323 322 322 324 323 323 323 325 326 326 326 327 326 326 326 326 327 328 328 328 329 330 332 332 334 333 333 332 332 331 333 342
312 313 314 314 313 321 320 317 316 317 332 323 324 321 322 322 323 324 322 323 325 326 325 326 326 326 326 326 326 326 327 327 328 328 330 331 332 332 333 332 332 332 332 332 338
312 314 313 315 318 318 317 316 317 325 329 324 322 323 324 324 323 322 324 324 324 326 328 327 327 327 326 325 325 326 326 327 328 328 329 329 329 330 331 333 332 332 332 333 335
312 314 314 311 319 315 315 318 326 328 324 325 324 324 323 324 324 324 325 327 326 328 329 328 329 328 326 326 327 326 326 327 328 328 328 328 328 329 330 331 332 333 336 339 339
313 314 315 314 313 315 318 324 328 326 324 324 324 324 324 323 324 323 324 326 327 327 329 329 329 329 328 328 328 327 326 327 329 328 328 329 328 329 330 331 332 335 337 338 340
313 318 317 319 316 316 319 326 328 325 323 323 324 325 325 325 323 324 325 325 325 326 328 328 328 328 327 328 328 328 326 326 326 327 326 327 329 331 331 331 331 332 335 339 345
313 318 319 317 318 318 322 324 324 322 322 323 325 324 325 325 325 325 324 324 324 326 326 327 328 328 328 327 328 330 329 327 326 328 328 327 329 329 334 331 331 331 333 345 349
317 320 320 317 317 320 324 325 323 322 322 324 325 325 325 326 325 325 325 324 325 326 325 326 327 330 328 327 328 329 330 329 331 332 334 329 328 331 333 335 335 337 344 350 352
317 322 319 317 321 323 324 323 319 322 323 323 324 324 325 325 326 326 325 326 324 324 325 326 327 328 328 328 329 328 333 332 333 338 336 336 336 334 337 335 341 345 351 353 356
319 319 319 317 324 325 323 321 320 322 324 325 326 325 326 326 327 326 326 325 324 325 326 326 326 326 327 328 330 331 329 331 333 332 337 337 338 332 331 333 348 350 350 351 352
318 323 322 320 320 322 323 323 322 321 321 322 325 325 326 326 327 327 327 326 324 325 322 324 326 328 329 329 328 328 328 329 330 332 336 336 334 333 330 331 346 349 351 350 351
321 322 320 323 323 322 321 321 321 322 322 322 324 325 326 327 327 326 326 327 325 325 324 326 329 329 329 328 327 327 327 326 328 329 336 335 336 336 332 331 341 347 348 346 345
319 321 320 319 320 320 317 321 321 321 320 321 324 324 325 325 325 326 327 326 325 324 325 326 330 329 330 327 327 327 326 326 327 327 332 331 333 339 342 343 344 345 345 344 343
319 317 317 319 321 321 321 321 321 320 319 319 320 322 323 323 323 323 322 321 322 324 327 330 331 331 331 328 328 329 327 329 328 332 332 335 341 340 341 342 341 341 340 340 341
Wind_Speed
19 19 19 19 19 19 19 18 17 17 17 17 15 15 16 16 18 19 11 13 13 10 10 12 14 13 11 16 15 15 12 15 11 1 10 12 13 9 4 2 1 3 5 18 24
22 22 22 22 22 21 21 20 20 19 18 17 16 15 16 17 17 19 16 17 13 10 15 17 17 15 17 14 17 12 13 22 17 9 11 12 9 6 5 3 6 5 6 21 25
23 24 24 24 24 24 23 22 21 20 19 17 15 14 14 13 18 4 5 2 5 6 12 12 10 14 18 19 17 18 16 19 21 23 20 16 15 15 15 8 3 12 12 20 25
24 24 24 24 24 23 23 22 21 20 19 17 15 13 11 6 6 1 8 2 3 14 11 14 13 16 18 16 19 18 21 23 23 25 18 16 21 16 17 18 11 3 20 24 26
24 24 24 24 23 22 21 20 20 19 17 15 12 11 8 8 13 11 11 11 7 12 14 15 15 15 17 15 17 15 16 23 22 22 20 21 17 19 20 19 12 3 19 23 25
23 24 23 21 21 19 20 19 18 16 15 11 9 8 7 15 3 3 7 11 11 14 16 17 17 16 19 21 18 20 21 23 25 25 23 20 20 24 20 19 3 3 13 19 22
22 23 22 23 23 22 22 20 18 15 11 8 6 5 9 12 4 4 7 8 11 13 15 15 17 20 18 17 17 16 19 20 21 23 20 17 16 16 26 24 18 11 13 18 22
23 24 23 25 24 21 18 17 16 13 9 6 4 3 7 4 6 9 11 14 14 14 17 16 16 19 22 24 23 21 22 19 17 16 8 9 16 15 19 13 13 14 14 17 23
25 24 23 23 22 20 14 14 11 6 3 2 2 3 4 3 3 4 7 14 15 14 15 16 16 22 22 19 18 20 21 23 20 17 4 15 18 12 12 14 14 19 20 18 22
24 24 23 21 21 15 13 7 6 6 3 2 2 7 4 4 8 10 12 11 11 13 12 13 19 16 17 15 18 21 19 21 21 10 13 15 17 19 15 15 22 21 22 21 23
24 22 20 19 19 13 12 6 4 2 6 7 3 4 2 4 1 2 4 12 14 14 15 19 12 17 22 20 23 24 23 26 25 23 14 19 23 18 16 18 22 21 23 20 22
23 22 19 16 11 10 13 6 6 5 6 2 2 3 3 2 6 3 1 7 14 14 16 16 18 16 18 21 23 22 25 25 24 22 22 24 19 22 18 17 24 21 17 18 22
24 24 19 16 6 12 6 5 6 6 7 10 3 5 1 3 4 2 4 4 11 13 13 15 16 14 9 14 19 20 23 24 26 23 24 24 21 19 23 28 17 25 17 19 21
23 24 21 12 5 8 2 7 9 4 5 9 8 4 4 5 5 3 4 7 9 11 11 12 13 11 15 20 17 21 21 22 23 21 16 20 19 21 12 14 14 22 21 19 18
23 22 18 13 7 5 5 8 7 3 5 4 5 2 6 7 8 8 3 8 12 12 9 14 14 14 14 17 16 20 20 21 23 21 21 21 14 18 13 18 13 13 25 19 23
21 20 12 10 6 6 8 9 4 7 2 6 2 3 7 11 4 8 8 9 6 10 13 12 12 14 13 14 18 16 18 18 21 18 19 19 20 19 17 16 15 15 15 9 10
19 14 8 6 4 9 8 5 6 6 3 3 1 5 5 3 4 4 5 6 5 10 12 14 7 6 7 12 14 16 15 13 15 15 16 20 21 19 16 14 5 5 8 8 2
18 10 5 5 6 8 5 8 6 7 1 2 5 8 4 5 4 6 7 10 7 8 13 10 12 14 16 15 14 14 17 13 21 17 16 15 16 16 20 7 9 0 5 5 6
15 8 4 5 7 5 10 7 5 3 4 6 9 8 2 4 5 5 3 6 5 8 8 13 12 18 20 10 15 16 13 18 23 22 18 18 6 15 5 7 7 14 4 2 11
16 5 7 7 6 5 8 10 3 4 7 7 10 1 5 4 7 3 3 7 5 11 11 16 18 17 17 18 15 17 16 15 10 18 19 12 19 11 12 18 16 15 5 9 12
9 7 2 5 5 10 9 7 1 2 6 6 3 6 4 5 6 7 3 6 7 10 15 16 13 15 18 18 17 10 13 1 22 9 11 14 10 14 16 21 17 20 14 9 11
7 5 2 2 10 5 7 1 3 9 6 8 6 9 7 6 8 8 5 4 13 12 15 13 14 15 22 21 16 14 12 19 10 7 8 14 11 25 30 12 6 3 7 10 9
8 13 5 4 6 6 5 9 6 7 7 4 5 4 6 8 5 7 7 7 10 11 11 11 9 14 14 16 12 13 8 11 22 12 20 7 10 13 25 34 11 10 9 8 6
7 4 7 7 9 9 7 10 7 6 11 9 10 9 10 10 10 8 10 12 8 13 12 9 14 14 14 22 22 12 15 22 14 13 9 17 12 16 11 27 5 3 3 9 12
5 2 6 5 2 6 5 10 10 7 10 6 9 12 12 9 12 13 13 11 13 8 13 13 14 16 18 22 23 23 21 20 19 9 8 14 8 10 13 15 20 6 4 10 14
7 6 2 14 9 11 7 11 11 12 5 13 10 13 5 11 12 14 14 13 16 16 15 14 17 18 17 22 22 24 22 24 17 19 12 14 16 14 7 8 4 5 2 8 18
5 8 8 8 10 8 10 7 7 6 11 13 14 11 11 10 15 18 21 24 22 18 16 14 12 13 18 18 19 17 14 14 9 11 14 10 12 15 12 2 7 10 13 15 14
Wind_Direction
346 343 339 336 334 331 327 325 321 318 313 309 305 303 303 306 307 305 288 268 262 257 225 180 195 217 229 245 252 279 274 266 300 34 8 10 346 50 35 33 22 105 23 146 160
339 336 333 330 327 324 321 319 317 315 313 308 305 302 302 305 304 284 275 270 252 231 183 189 201 210 227 245 248 236 278 291 323 335 309 320 327 359 321 134 179 154 103 148 159
332 329 326 323 320 318 316 315 313 310 307 305 307 304 301 308 303 237 176 204 220 197 183 204 226 227 240 247 250 251 263 272 304 311 322 303 299 336 310 298 150 172 161 167 168
328 326 322 320 317 313 311 310 309 305 303 303 309 307 302 289 284 347 194 151 137 154 196 212 228 225 250 259 250 250 267 275 278 286 294 281 299 296 299 310 325 314 173 179 181
326 327 324 321 318 314 310 307 309 307 303 303 302 305 297 243 256 251 248 261 241 181 215 215 228 237 257 273 286 273 273 280 288 280 276 282 271 281 289 286 286 296 162 185 187
331 330 329 327 323 322 318 315 311 309 306 306 299 299 267 256 232 252 237 247 209 206 222 226 239 254 274 280 278 290 293 292 286 281 276 270 270 270 266 272 270 244 175 193 197
334 336 335 334 331 330 324 319 315 313 310 298 301 284 255 251 241 232 198 192 198 212 230 236 248 256 262 268 272 282 276 274 274 264 259 280 274 264 264 257 254 200 212 203 200
339 338 336 336 329 326 321 313 313 310 307 302 291 238 261 225 236 238 225 225 226 246 248 251 257 260 263 271 273 269 267 272 268 270 249 247 271 276 281 267 215 231 211 219 204
339 336 333 332 329 331 327 321 322 320 334 359 51 207 177 313 250 223 231 236 235 242 247 248 249 249 258 252 259 255 260 263 273 280 235 277 278 288 293 268 270 259 256 216 214
335 334 331 334 334 344 340 10 50 23 29 60 274 239 209 307 298 263 243 233 231 251 237 235 238 241 237 248 261 273 280 272 268 266 271 243 282 290 273 278 272 247 252 214 215
336 336 335 335 339 355 17 16 303 220 248 304 354 289 43 328 292 319 259 222 230 242 243 229 244 240 256 252 264 271 273 282 283 288 264 267 278 281 276 255 261 251 249 219 210
340 340 342 339 346 18 25 39 39 327 296 179 231 286 270 314 264 169 120 216 204 244 243 241 244 250 266 273 273 271 275 267 272 275 273 276 275 273 283 279 269 256 249 223 206
343 342 347 348 2 16 24 41 352 334 255 181 238 259 301 281 311 328 267 280 265 264 257 261 275 292 271 265 274 264 263 272 277 283 277 275 258 264 258 253 242 250 248 225 209
344 343 345 356 18 357 12 345 345 319 263 138 189 158 255 289 244 238 281 294 279 273 313 291 293 297 286 277 264 266 271 275 269 266 266 268 270 263 264 282 267 248 243 216 196
343 343 343 345 315 359 292 328 324 307 262 98 129 299 271 263 339 170 270 259 267 309 294 280 313 292 276 285 283 282 290 284 275 272 272 258 263 267 267 259 260 249 254 220 189
342 342 352 356 1 307 314 311 305 234 174 140 268 291 278 195 197 285 243 219 237 266 251 252 257 246 275 293 288 293 288 274 267 263 260 258 261 261 256 251 236 224 243 31 66
342 339 349 357 296 317 314 296 247 259 140 111 336 307 283 324 249 290 289 252 333 333 339 308 292 316 288 282 284 257 262 272 248 244 249 250 250 252 257 255 242 20 23 7 353
340 331 332 356 336 324 315 260 261 45 311 77 284 265 295 345 169 297 269 257 113 343 320 348 316 12 349 304 317 296 297 287 283 270 266 268 251 245 241 254 143 240 18 331 338
341 345 306 293 330 328 282 252 359 37 351 318 272 269 136 172 276 288 259 304 21 344 339 308 314 327 287 295 295 289 276 271 262 260 268 281 247 294 271 232 180 206 145 8 340
340 309 251 289 311 305 260 269 327 331 302 262 287 323 290 21 293 322 295 87 332 349 330 311 301 304 291 319 281 346 323 295 254 269 287 270 298 267 240 224 250 238 228 32 330
354 287 194 292 291 251 256 9 297 175 286 271 302 274 287 298 307 312 330 315 47 334 320 306 302 311 303 281 322 296 262 154 299 352 316 270 265 286 308 50 348 337 29 10 341
308 271 329 284 256 230 282 95 15 262 207 263 275 286 280 317 295 301 282 353 9 329 321 335 319 294 292 291 339 312 26 4 320 310 323 307 305 10 359 309 135 47 28 13 353
295 290 283 237 268 239 119 261 264 267 249 266 264 230 310 284 299 280 319 327 318 320 0 336 306 309 291 276 43 335 348 205 272 259 219 192 282 344 341 326 7 12 37 38 18
297 285 179 225 271 282 305 269 266 185 276 269 283 298 271 268 271 274 274 288 295 307 4 284 263 273 286 302 313 277 231 259 284 298 356 310 332 278 37 304 290 37 48 80 70
256 2 341 281 132 311 292 296 281 251 200 262 265 245 272 295 292 286 290 307 312 314 302 306 284 289 291 290 285 291 300 289 279 279 165 236 220 241 176 244 287 350 23 64 49
299 328 314 275 275 277 239 256 258 269 240 271 233 281 313 283 288 296 308 306 304 305 295 301 292 283 283 277 269 265 263 267 282 280 309 329 314 38 137 257 315 331 29 65 58
294 282 272 287 261 253 271 259 278 318 277 260 291 294 277 309 334 307 294 284 277 274 282 288 288 282 276 290 290 279 275 305 299 329 327 309 8 357 346 62 51 19 46 55 55